Regional Weather Roundup
Issued by NWS

Home | Current Version | Previous Version | Graphics & Text | Print | Product List | Glossary On
Versions: 1 2 3 4 5 6 7 8 9 10 11 12 13 14 15 16 17 18 19 20 21 22 23 24 25 26 27 28 29 30 31 32 33 34 35 36 37 38 39 40 41 42 43 44 45 46 47 48 49 50
000
ASUS43 KLOT 040910
RWRIL

ILLINOIS REGIONAL WEATHER ROUNDUP
NATIONAL WEATHER SERVICE CHICAGO/ROMEOVILLE IL
300 AM CST WED MAR 04 2015

NOTE: "FAIR" INDICATES FEW OR NO CLOUDS BELOW 12,000 FEET WITH NO
SIGNIFICANT WEATHER AND/OR OBSTRUCTIONS TO VISIBILITY.

* THESE STATIONS ARE NOT UNDER NWS QUALITY CONTROL. THEY ALSO MAY NOT
  REPORT WEATHER SUCH AS PRECIPITATION OR FOG.

ILZ001-002-007-009-015-016-024-041000-
NORTHWEST ILLINOIS

CITY           SKY/WX    TMP DP  RH WIND       PRES   REMARKS
MOLINE         PTCLDY    13   4  67 NW20      30.06R WCI  -5
STERLING*      PTCLDY    16   9  73 NW13      30.00R WCI   2
SAVANNA*       CLEAR     14   6  70 NW10      30.02R WCI   1
$$

ILZ003-004-008-010-011-017-018-041000-
NORTH CENTRAL ILLINOIS

CITY           SKY/WX    TMP DP  RH WIND       PRES   REMARKS
ROCKFORD       MOCLDY    16   8  71 NW21      29.96R WCI  -1
FREEPORT*      CLEAR     13   7  76 NW17      29.99R WCI  -4
ROCHELLE*      FAIR      16  10  77 NW15G23   29.96R WCI   2
DE KALB*       PTCLDY    17  13  83 NW16G24   29.93R WCI   2
PERU*          PTCLDY    19  13  78 W15G22    29.98R WCI   5
$$

ILZ005-006-012>014-019>023-041000-
NORTHEAST ILLINOIS

CITY           SKY/WX    TMP DP  RH WIND       PRES   REMARKS
CHICAGO-OHARE  MOCLDY    27  21  78 W16       29.89R WCI  15
CHICAGO-MIDWAY CLOUDY    31  22  69 W7        29.89S WCI  24
AURORA         PTCLDY    22  15  75 W20       29.92R WCI   7
LANSING*       CLOUDY    31  25  76 NW7       29.90R WCI  25
JOLIET*        CLOUDY    28  23  83 W9        29.92R WCI  19
WAUKEGAN       CLOUDY    26  20  77 W8        29.88R WCI  18
DUPAGE AIRPORT PTCLDY    24  18  77 W14       29.90R WCI  12
KANKAKEE*      CLOUDY    30  27  87 W12       29.91F WCI  20
WHEELING       PTCLDY    27  21  78 W14       29.91R WCI  16
MORRIS*        MOCLDY    25  22  89 W15       29.92R WCI  12
ROMEOVILLE*    CLOUDY    28  24  85 NW12      29.91R WCI  17
NORTHERLY ISL    N/A     31  22  69 W8          N/A  WCI  24
$$

LMZ740>746-041000-
SOUTHERN LAKE MICHIGAN

STATION/POSITION SKY/WX   TEMP    WIND        PRES    VSBY  WAVE
                          AIR SEA DIR/SP/G                  HT/PER
                          (F)     (DEG/KT/KT) (MB)    (MI)  (FT/S)
WAUKEGAN HARBOR            28                   N/A
HARRISON CRIB              31     280/ 13/ 15   N/A
BURNHAM HARBOR             31     270/  4/ 10   N/A
CALUMET HARBOR             31     260/  5/ 10 1011.1R
MICHIGAN CITY              31     250/  9/ 11   N/A
$$

ILZ025>027-034>036-040-047-049-050-058-095>099-041000-
WEST-CENTRAL ILLINOIS

CITY           SKY/WX    TMP DP  RH WIND       PRES   REMARKS
QUINCY         CLOUDY    20  11  68 NW24      30.08R WCI   3
GALESBURG*     PTCLDY    15   9  76 NW14      30.04R WCI   0
MACOMB*        PTCLDY    16  11  80 NW17      30.10R WCI   0
JACKSONVILLE*  CLOUDY    28  19  69 NW18      30.02R WCI  15
PITTSFIELD*    CLOUDY    28  20  73 NW17      30.05R WCI  15
$$

ILZ028>032-037-038-041>044-048-051>054-059>061-041000-
CENTRAL ILLINOIS

CITY           SKY/WX    TMP DP  RH WIND       PRES   REMARKS
PONTIAC        MOCLDY    25  20  83 NW12      29.95R WCI  14
BLOOMINGTON    MOCLDY    27  22  81 NW13      29.95S WCI  16
DECATUR        CLOUDY    30  25  81 NW14      29.95R WCI  19
PEORIA         PTCLDY    21  11  65 NW13G23   30.02R WCI   9
LACON*         PTCLDY    18  10  71 NW13G21   30.00R WCI   4
LINCOLN*       MOCLDY    30  25  82 NW5       29.99R WCI  25
SPRINGFIELD    CLOUDY    28  21  75 NW16      29.99R WCI  16
TAYLORVILLE    CLOUDY    32  28  86 NW15      29.97R WCI  22
$$

ILZ033-039-045-046-055>057-062-063-041000-
EAST-CENTRAL ILLINOIS

CITY           SKY/WX    TMP DP  RH WIND       PRES   REMARKS
CHAMPAIGN      CLOUDY    31  26  82 NW13      29.92F WCI  21
DANVILLE*      CLOUDY    31  27  83 NW5       29.87F WCI  26
RANTOUL*       CLOUDY    32  28  87 NW10      29.91F WCI  23
MATTOON        CLOUDY    32  29  88 NW7       29.93S WCI  26
PARIS*         CLOUDY    33  31  94 CALM      29.92F
$$

ILZ079-100>102-041000-
SOUTHWEST ILLINOIS

CITY           SKY/WX    TMP DP  RH WIND       PRES   REMARKS
ALTON          CLOUDY    34  30  86 NW5       29.99S WCI  30
BELLEVILLE     CLOUDY    32  32 100 NW5       29.98R WCI  27
CAHOKIA*       CLOUDY    35  31  85 N8        29.99R WCI  29
SPARTA*        RAIN      33  32  98 N5        29.97F WCI  28
$$

ILZ064>066-069>071-074>076-080>082-084>086-088>090-092>094-041000-
SOUTH-CENTRAL ILLINOIS

CITY           SKY/WX    TMP DP  RH WIND       PRES   REMARKS
CARBONDALE     LGT RAIN  36  34  92 NW13      29.95R WCI  27
CAIRO*         DRIZZLE  N/A N/A N/A NE7       29.88F
EFFINGHAM*     CLOUDY    34  29  83 NW7       29.96R WCI  28
MARION         LGT RAIN  39  37  93 N8        29.95R WCI  34
MT. VERNON     CLOUDY    36  30  80 N3        29.96S
CENTRALIA*     RAIN      33  32  94 NW7       29.98R WCI  27
SALEM*         LGT RAIN  35  33  92 N7        29.97R WCI  29
METROPOLIS*    DRIZZLE   43  43 100 CALM      29.89F
$$

ILZ067-068-072-073-078-083-087-091-041000-
SOUTHEAST ILLINOIS

CITY           SKY/WX    TMP DP  RH WIND       PRES   REMARKS
LAWRENCEVILLE  LGT RAIN  34  33  96 N8        29.93R WCI  27
FLORA*         LGT RAIN  33  33 100 N6        29.95S WCI  28
FAIRFIELD*     LGT RAIN  35  34  96 N9        29.94R WCI  27
HARRISBURG*    RAIN      39  39 100 N7        29.93F WCI  34
ROBINSON*      RAIN      33  32  96 N6        29.94F WCI  28
CARMI*         RAIN      38  38 100 N9        29.92R WCI  32
$$

ABBREVIATIONS USED IN REMARKS
   TC - TEMPERATURE IN CELSIUS
  WCI - WIND CHILL INDEX
   HX - HEAT INDEX
  VSB - VISIBILITY
$$



USA.gov is the U.S. government's official web portal to all federal, state and local government web resources and services.